Follow iAlert.com on twitter @ialertcom
Search For Active Alerts in Your Area  
  Hi Guest:  [ Sign-up / Services ] [ Login ]

Current weather by "City, St" or "zip code"  
 

Advertise Here

Current Conditions: Doylestown, Doylestown Airport, PA

Fair


78.0 F

Last Updated on Jun 18 2018, 8:54 am EDT
Humidity: 74%
Wind Speed: SW 5.8 mph
Barometer 30.04 in
Dewpoint: 69.1 F
Visibility: 10.00 mi
Precip: --
Heat Index: NA
Wind Chill: NA
Current conditions at:

Doylestown, Doylestown Airport, PA (KDYL)

Lat: 40.33 Lon: 75.122

Local Radar Image active severe weather and emergency alerts image image weather storm and storm spotter reports image weather observation monitoring service image
Local
Radar
Active
Alerts
Storm Reports Obs
Monitoring

iAlert Weather and Emergency Alert Notification Services:


ialert severe weather and emergency alerts by text message and email ialert daily weather forecast by email and text message service ialert real-time weather-observation monitoring and alert notification service ialert storm report monitoring alert notification

Observation History for Doylestown, Doylestown Airport, PA


Time Wind
(mph)
Vis
(mi)
Weather Precip (in) Temperature (F) Relative
Humidity
Wind
Chill
(°F)
Heat
Index
(°F)
Pressure
Air Dwpt altimeter
(in)
sea level
(mb)
8:54 am EDT SW 5.8 10.00 Fair -- 78.0 69.1 74% NA NA 30.04 1016.5
7:54 am EDT SW 5.8 10.00 Fair -- 74.0 68.0 82% NA NA 30.05 1016.9
6:54 am EDT S 3.5 10.00 Fair -- 71.0 66.9 87% NA NA 30.05 1016.8
5:54 am EDT S 4.6 10.00 Fair -- 67.0 64.9 93% NA NA 30.06 1017.4
4:54 am EDT S 4.6 10.00 Fair -- 67.0 64.9 93% NA NA 30.06 1017.1
3:54 am EDT S 3.5 10.00 Fair -- 66.0 63.0 90% NA NA 30.06 1017.3
2:54 am EDT S 3.5 10.00 Fair -- 69.0 63.0 81% NA NA 30.07 1017.7
1:54 am EDT N 0.0 10.00 Fair -- 71.0 62.1 73% NA NA 30.08 1017.8
12:54 am EDT S 4.6 10.00 Fair -- 71.0 61.0 71% NA NA 30.07 1017.8
11:54 pm EDT S 3.5 10.00 Fair -- 73.0 60.1 64% NA NA 30.07 1017.7
10:54 pm EDT S 4.6 10.00 Fair -- 75.0 62.1 64% NA NA 30.07 1017.5
9:54 pm EDT S 4.6 10.00 Fair -- 76.0 62.1 62% NA NA 30.06 1017.3
8:54 pm EDT 5.8 10.00 Fair -- 79.0 63.0 58% NA NA 30.05 1016.9
7:54 pm EDT N 0.0 10.00 Fair -- 80.0 63.0 56% NA 81 30.05 1017.0
6:54 pm EDT 3.5 10.00 Fair -- 87.0 59.0 39% NA 86 30.05 1016.9
5:54 pm EDT N 0.0 10.00 Fair -- 88.0 59.0 38% NA 87 30.06 1017.3
4:54 pm EDT NW 4.6 10.00 Fair -- 90.0 59.0 35% NA 89 30.06 1017.2
3:54 pm EDT SW 6.9 10.00 Fair -- 88.0 57.0 35% NA 87 30.06 1017.2
2:54 pm EDT SW 6.9 10.00 Fair -- 87.0 57.9 37% NA 86 30.06 1017.3
1:54 pm EDT 5.8 10.00 Fair -- 88.0 57.9 36% NA 87 30.06 1017.5
12:54 pm EDT SW 4.6 10.00 Fair -- 85.0 55.9 37% NA 84 30.08 1018.0
11:54 am EDT N 0.0 10.00 Fair -- 85.0 57.9 40% NA 84 30.10 1018.7
10:54 am EDT NW 4.6 10.00 Fair -- 84.0 57.0 40% NA 83 30.11 1018.9
9:54 am EDT N 0.0 10.00 Fair -- 81.0 59.0 47% NA 81 30.09 1018.5

Regional Weather Observation


Allentown, Lehigh Valley International Airport, PA (KABE)

Fair
78.0 F

Allentown Queen City Municipal Airport, PA (KXLL)

Fair
77.0 F

Doylestown, Doylestown Airport, PA (KDYL)

Fair
78.0 F

Pottstown, Pottstown Limerick Airport, PA (KPTW)

Fair with Haze
72.0 F

Philadelphia, Northeast Philadelphia Airport, PA (KPNE)

Fair
82.0 F

Reading, Reading Regional Airport, PA (KRDG)

Fair
80.0 F

Advertise Here